Year,Month,Day,Hour,Minute,Value (Times are PST for windspeed in km/hr)
2008,08,28,00,00,8.40
2008,08,28,00,01,9.20
2008,08,28,00,02,7.20
2008,08,28,00,03,8.50
2008,08,28,00,04,7.00
2008,08,28,00,05,10.80
2008,08,28,00,06,9.70
2008,08,28,00,07,10.70
2008,08,28,00,08,7.20
2008,08,28,00,09,10.30
2008,08,28,00,10,10.40
2008,08,28,00,11,9.40
2008,08,28,00,12,7.20
2008,08,28,00,13,6.70
2008,08,28,00,14,6.40
2008,08,28,00,15,7.60
2008,08,28,00,16,7.00
2008,08,28,00,17,6.40
2008,08,28,00,18,6.40
2008,08,28,00,19,12.20
2008,08,28,00,20,7.30
2008,08,28,00,21,10.00
2008,08,28,00,22,10.70
2008,08,28,00,23,11.60
2008,08,28,00,24,9.00
2008,08,28,00,25,13.80
2008,08,28,00,26,7.30
2008,08,28,00,27,7.50
2008,08,28,00,28,8.50
2008,08,28,00,29,9.30
2008,08,28,00,30,6.40
2008,08,28,00,31,8.90
2008,08,28,00,32,7.00
2008,08,28,00,33,7.10
2008,08,28,00,34,7.20
2008,08,28,00,35,10.00
2008,08,28,00,36,8.40
2008,08,28,00,37,11.40
2008,08,28,00,38,6.40
2008,08,28,00,39,8.50
2008,08,28,00,40,8.50
2008,08,28,00,41,6.10
2008,08,28,00,42,7.50
2008,08,28,00,43,8.10
2008,08,28,00,44,7.00
2008,08,28,00,45,10.20
2008,08,28,00,46,7.10
2008,08,28,00,47,4.80
2008,08,28,00,48,6.10
2008,08,28,00,49,6.40
2008,08,28,00,50,6.20
2008,08,28,00,51,8.60
2008,08,28,00,52,10.60
2008,08,28,00,53,5.80
2008,08,28,00,54,5.20
2008,08,28,00,55,6.30
2008,08,28,00,56,9.60
2008,08,28,00,57,6.20
2008,08,28,00,58,4.80
2008,08,28,00,59,5.80
2008,08,28,01,00,7.20
2008,08,28,01,01,8.50
2008,08,28,01,02,7.10
2008,08,28,01,03,5.80
2008,08,28,01,04,4.90
2008,08,28,01,05,5.30
2008,08,28,01,06,2.20
2008,08,28,01,07,2.80
2008,08,28,01,08,3.60
2008,08,28,01,09,2.20
2008,08,28,01,10,3.70
2008,08,28,01,11,5.10
2008,08,28,01,12,5.80
2008,08,28,01,13,7.20
2008,08,28,01,14,5.70
2008,08,28,01,15,8.60
2008,08,28,01,16,7.40
2008,08,28,01,17,3.10
2008,08,28,01,18,3.00
2008,08,28,01,19,7.40
2008,08,28,01,20,3.90
2008,08,28,01,21,3.60
2008,08,28,01,22,5.00
2008,08,28,01,23,4.60
2008,08,28,01,24,3.00
2008,08,28,01,25,2.10
2008,08,28,01,26,1.80
2008,08,28,01,27,0.80
2008,08,28,01,28,6.20
2008,08,28,01,29,7.20
2008,08,28,01,30,8.40
2008,08,28,01,31,7.30
2008,08,28,01,32,10.90
2008,08,28,01,33,5.60
2008,08,28,01,34,9.20
2008,08,28,01,35,6.40
2008,08,28,01,36,8.70
2008,08,28,01,37,7.10
2008,08,28,01,38,3.70
2008,08,28,01,39,4.30
2008,08,28,01,40,4.00
2008,08,28,01,41,3.10
2008,08,28,01,42,2.40
2008,08,28,01,43,0.20
2008,08,28,01,44,0.20
2008,08,28,01,45,0.90
2008,08,28,01,46,3.90
2008,08,28,01,47,0.10
2008,08,28,01,48,0.00
2008,08,28,01,49,2.50
2008,08,28,01,50,1.00
2008,08,28,01,51,0.10
2008,08,28,01,52,0.00
2008,08,28,01,53,0.00
2008,08,28,01,54,0.00
2008,08,28,01,55,0.00
2008,08,28,01,56,0.00
2008,08,28,01,57,2.90
2008,08,28,01,58,0.00
2008,08,28,01,59,0.50
2008,08,28,02,00,1.50
2008,08,28,02,01,0.80
2008,08,28,02,02,1.70
2008,08,28,02,03,0.20
2008,08,28,02,04,1.00
2008,08,28,02,05,0.20
2008,08,28,02,06,0.00
2008,08,28,02,07,0.70
2008,08,28,02,08,0.20
2008,08,28,02,09,0.20
2008,08,28,02,10,0.10
2008,08,28,02,11,0.70
2008,08,28,02,12,0.00
2008,08,28,02,13,0.00
2008,08,28,02,14,0.00
2008,08,28,02,15,0.50
2008,08,28,02,16,2.30
2008,08,28,02,17,0.10
2008,08,28,02,18,1.50
2008,08,28,02,19,1.70
2008,08,28,02,20,0.00
2008,08,28,02,21,0.00
2008,08,28,02,22,6.00
2008,08,28,02,23,5.50
2008,08,28,02,24,5.50
2008,08,28,02,25,8.10
2008,08,28,02,26,6.00
2008,08,28,02,27,7.60
2008,08,28,02,28,6.70
2008,08,28,02,29,6.40
2008,08,28,02,30,1.20
2008,08,28,02,31,5.50
2008,08,28,02,32,2.90
2008,08,28,02,33,4.20
2008,08,28,02,34,6.20
2008,08,28,02,35,4.60
2008,08,28,02,36,6.10
2008,08,28,02,37,7.90
2008,08,28,02,38,6.00
2008,08,28,02,39,4.20
2008,08,28,02,40,4.90
2008,08,28,02,41,4.30
2008,08,28,02,42,12.50
2008,08,28,02,43,6.00
2008,08,28,02,44,5.10
2008,08,28,02,45,3.90
2008,08,28,02,46,2.40
2008,08,28,02,47,1.30
2008,08,28,02,48,3.90
2008,08,28,02,49,2.50
2008,08,28,02,50,6.10
2008,08,28,02,51,3.80
2008,08,28,02,52,4.30
2008,08,28,02,53,3.20
2008,08,28,02,54,9.20
2008,08,28,02,55,2.20
2008,08,28,02,56,3.30
2008,08,28,02,57,6.40
2008,08,28,02,58,3.70
2008,08,28,02,59,3.60
2008,08,28,03,00,2.60
2008,08,28,03,01,0.10
2008,08,28,03,02,0.00
2008,08,28,03,03,0.00
2008,08,28,03,04,0.00
2008,08,28,03,05,0.00
2008,08,28,03,06,0.00
2008,08,28,03,07,0.00
2008,08,28,03,08,0.10
2008,08,28,03,09,0.10
2008,08,28,03,10,0.00
2008,08,28,03,11,0.00
2008,08,28,03,12,0.00
2008,08,28,03,13,0.00
2008,08,28,03,14,0.10
2008,08,28,03,15,1.10
2008,08,28,03,16,3.50
2008,08,28,03,17,2.90
2008,08,28,03,18,0.20
2008,08,28,03,19,0.80
2008,08,28,03,20,1.30
2008,08,28,03,21,1.80
2008,08,28,03,22,2.30
2008,08,28,03,23,4.80
2008,08,28,03,24,0.20
2008,08,28,03,25,0.30
2008,08,28,03,26,6.30
2008,08,28,03,27,5.90
2008,08,28,03,28,3.10
2008,08,28,03,29,6.60
2008,08,28,03,30,6.90
2008,08,28,03,31,8.90
2008,08,28,03,32,6.20
2008,08,28,03,33,6.00
2008,08,28,03,34,5.00
2008,08,28,03,35,4.70
2008,08,28,03,36,3.60
2008,08,28,03,37,4.30
2008,08,28,03,38,5.20
2008,08,28,03,39,4.80
2008,08,28,03,40,4.70
2008,08,28,03,41,2.00
2008,08,28,03,42,4.50
2008,08,28,03,43,8.90
2008,08,28,03,44,6.40
2008,08,28,03,45,7.30
2008,08,28,03,46,8.90
2008,08,28,03,47,8.10
2008,08,28,03,48,9.10
2008,08,28,03,49,7.60
2008,08,28,03,50,7.60
2008,08,28,03,51,5.50
2008,08,28,03,52,8.50
2008,08,28,03,53,7.80
2008,08,28,03,54,6.80
2008,08,28,03,55,4.20
2008,08,28,03,56,8.40
2008,08,28,03,57,8.30
2008,08,28,03,58,5.10
2008,08,28,03,59,6.40
2008,08,28,04,00,5.70
2008,08,28,04,01,7.80
2008,08,28,04,02,4.90
2008,08,28,04,03,7.90
2008,08,28,04,04,4.00
2008,08,28,04,05,4.20
2008,08,28,04,06,6.00
2008,08,28,04,07,7.80
2008,08,28,04,08,7.70
2008,08,28,04,09,7.00
2008,08,28,04,10,7.70
2008,08,28,04,11,8.40
2008,08,28,04,12,8.70
2008,08,28,04,13,4.90
2008,08,28,04,14,9.90
2008,08,28,04,15,5.00
2008,08,28,04,16,0.70
2008,08,28,04,17,2.00
2008,08,28,04,18,7.10
2008,08,28,04,19,5.30
2008,08,28,04,20,8.50
2008,08,28,04,21,6.20
2008,08,28,04,22,6.60
2008,08,28,04,23,3.50
2008,08,28,04,24,2.60
2008,08,28,04,25,7.50
2008,08,28,04,26,0.50
2008,08,28,04,27,4.70
2008,08,28,04,28,6.40
2008,08,28,04,29,2.90
2008,08,28,04,30,8.30
2008,08,28,04,31,5.80
2008,08,28,04,32,0.80
2008,08,28,04,33,5.00
2008,08,28,04,34,5.70
2008,08,28,04,35,4.10
2008,08,28,04,36,4.30
2008,08,28,04,37,5.80
2008,08,28,04,38,8.10
2008,08,28,04,39,8.30
2008,08,28,04,40,3.70
2008,08,28,04,41,7.40
2008,08,28,04,42,2.50
2008,08,28,04,43,8.00
2008,08,28,04,44,7.60
2008,08,28,04,45,8.10
2008,08,28,04,46,8.70
2008,08,28,04,47,6.00
2008,08,28,04,48,8.40
2008,08,28,04,49,3.20
2008,08,28,04,50,5.00
2008,08,28,04,51,3.30
2008,08,28,04,52,0.90
2008,08,28,04,53,3.00
2008,08,28,04,54,2.60
2008,08,28,04,55,3.00
2008,08,28,04,56,2.90
2008,08,28,04,57,0.20
2008,08,28,04,58,1.80
2008,08,28,04,59,1.30
2008,08,28,05,00,4.00
2008,08,28,05,01,5.20
2008,08,28,05,02,3.20
2008,08,28,05,03,5.30
2008,08,28,05,04,6.70
2008,08,28,05,05,6.00
2008,08,28,05,06,6.40
2008,08,28,05,07,5.10
2008,08,28,05,08,6.80
2008,08,28,05,09,2.10
2008,08,28,05,10,5.70
2008,08,28,05,11,9.90
2008,08,28,05,12,11.30
2008,08,28,05,13,4.70
2008,08,28,05,14,5.20
2008,08,28,05,15,8.90
2008,08,28,05,16,8.60
2008,08,28,05,17,5.00
2008,08,28,05,18,8.70
2008,08,28,05,19,6.40
2008,08,28,05,20,4.10
2008,08,28,05,21,3.30
2008,08,28,05,22,5.60
2008,08,28,05,23,6.20
2008,08,28,05,24,4.10
2008,08,28,05,25,6.70
2008,08,28,05,26,6.20
2008,08,28,05,27,6.30
2008,08,28,05,28,7.40
2008,08,28,05,29,6.00
2008,08,28,05,30,5.00
2008,08,28,05,31,2.10
2008,08,28,05,32,4.80
2008,08,28,05,33,4.80
2008,08,28,05,34,5.30
2008,08,28,05,35,4.70
2008,08,28,05,36,5.70
2008,08,28,05,37,4.70
2008,08,28,05,38,0.90
2008,08,28,05,39,4.30
2008,08,28,05,40,2.10
2008,08,28,05,41,5.20
2008,08,28,05,42,2.10
2008,08,28,05,43,7.90
2008,08,28,05,44,6.40
2008,08,28,05,45,5.70
2008,08,28,05,46,4.70
2008,08,28,05,47,6.40
2008,08,28,05,48,5.00
2008,08,28,05,49,3.80
2008,08,28,05,50,5.80
2008,08,28,05,51,6.50
2008,08,28,05,52,2.90
2008,08,28,05,53,6.50
2008,08,28,05,54,3.00
2008,08,28,05,55,1.50
2008,08,28,05,56,8.90
2008,08,28,05,57,5.50
2008,08,28,05,58,2.90
2008,08,28,05,59,4.80
2008,08,28,06,00,3.80
2008,08,28,06,01,6.70
2008,08,28,06,02,2.20
2008,08,28,06,03,1.00
2008,08,28,06,04,0.20
2008,08,28,06,05,2.20
2008,08,28,06,06,0.00
2008,08,28,06,07,2.10
2008,08,28,06,08,2.30
2008,08,28,06,09,1.10
2008,08,28,06,10,0.70
2008,08,28,06,11,1.20
2008,08,28,06,12,0.80
2008,08,28,06,13,0.50
2008,08,28,06,14,0.20
2008,08,28,06,15,0.00
2008,08,28,06,16,0.00
2008,08,28,06,17,0.00
2008,08,28,06,18,1.10
2008,08,28,06,19,0.70
2008,08,28,06,20,0.10
2008,08,28,06,21,0.90
2008,08,28,06,22,1.00
2008,08,28,06,23,3.30
2008,08,28,06,24,0.30
2008,08,28,06,25,1.50
2008,08,28,06,26,1.80
2008,08,28,06,27,2.90
2008,08,28,06,28,3.60
2008,08,28,06,29,3.60
2008,08,28,06,30,1.50
2008,08,28,06,31,0.90
2008,08,28,06,32,4.00
2008,08,28,06,33,0.90
2008,08,28,06,34,2.50
2008,08,28,06,35,0.00
2008,08,28,06,36,5.50
2008,08,28,06,37,3.00
2008,08,28,06,38,3.80
2008,08,28,06,39,2.10
2008,08,28,06,40,3.30
2008,08,28,06,41,3.90
2008,08,28,06,42,1.50
2008,08,28,06,43,1.10
2008,08,28,06,44,3.10
2008,08,28,06,45,1.80
2008,08,28,06,46,3.90
2008,08,28,06,47,0.10
2008,08,28,06,48,1.60
2008,08,28,06,49,2.50
2008,08,28,06,50,4.30
2008,08,28,06,51,5.20
2008,08,28,06,52,5.60
2008,08,28,06,53,3.60
2008,08,28,06,54,5.60
2008,08,28,06,55,2.30
2008,08,28,06,56,3.80
2008,08,28,06,57,5.60
2008,08,28,06,58,2.70
2008,08,28,06,59,7.10
2008,08,28,07,00,4.90
2008,08,28,07,01,6.20
2008,08,28,07,02,2.90
2008,08,28,07,03,0.70
2008,08,28,07,04,4.30
2008,08,28,07,05,5.70
2008,08,28,07,06,2.70
2008,08,28,07,07,2.70
2008,08,28,07,08,3.90
2008,08,28,07,09,4.20
2008,08,28,07,10,4.60
2008,08,28,07,11,4.60
2008,08,28,07,12,6.70
2008,08,28,07,13,0.50
2008,08,28,07,14,2.50
2008,08,28,07,15,5.20
2008,08,28,07,16,6.40
2008,08,28,07,17,1.80
2008,08,28,07,18,4.30
2008,08,28,07,19,4.70
2008,08,28,07,20,4.10
2008,08,28,07,21,2.60
2008,08,28,07,22,4.70
2008,08,28,07,23,0.40
2008,08,28,07,24,4.00
2008,08,28,07,25,1.50
2008,08,28,07,26,4.30
2008,08,28,07,27,7.40
2008,08,28,07,28,5.50
2008,08,28,07,29,6.90
2008,08,28,07,30,4.50
2008,08,28,07,31,4.50
2008,08,28,07,32,2.40
2008,08,28,07,33,2.40
2008,08,28,07,34,4.20
2008,08,28,07,35,2.70
2008,08,28,07,36,3.20
2008,08,28,07,37,4.20
2008,08,28,07,38,6.00
2008,08,28,07,39,5.30
2008,08,28,07,40,1.70
2008,08,28,07,41,6.60
2008,08,28,07,42,3.30
2008,08,28,07,43,4.00
2008,08,28,07,44,1.10
2008,08,28,07,45,4.30
2008,08,28,07,46,2.10
2008,08,28,07,47,3.10
2008,08,28,07,48,3.20
2008,08,28,07,49,3.90
2008,08,28,07,50,2.10
2008,08,28,07,51,3.40
2008,08,28,07,52,2.10
2008,08,28,07,53,5.00
2008,08,28,07,54,4.80
2008,08,28,07,55,1.40
2008,08,28,07,56,4.20
2008,08,28,07,57,1.80
2008,08,28,07,58,1.60
2008,08,28,07,59,3.00
2008,08,28,08,00,1.50
2008,08,28,08,01,0.00
2008,08,28,08,02,2.00
2008,08,28,08,03,1.90
2008,08,28,08,04,1.40
2008,08,28,08,05,0.20
2008,08,28,08,06,1.20
2008,08,28,08,07,0.50
2008,08,28,08,08,3.10
2008,08,28,08,09,3.30
2008,08,28,08,10,3.20
2008,08,28,08,11,3.20
2008,08,28,08,12,3.20
2008,08,28,08,13,3.20
2008,08,28,08,14,1.30
2008,08,28,08,15,0.00
2008,08,28,08,16,0.10
2008,08,28,08,17,0.30
2008,08,28,08,18,0.70
2008,08,28,08,19,2.00
2008,08,28,08,20,2.50
2008,08,28,08,21,0.70
2008,08,28,08,22,0.10
2008,08,28,08,23,3.50
2008,08,28,08,24,4.90
2008,08,28,08,25,8.50
2008,08,28,08,26,4.60
2008,08,28,08,27,1.50
2008,08,28,08,28,4.60
2008,08,28,08,29,3.20
2008,08,28,08,30,5.10
2008,08,28,08,31,6.80
2008,08,28,08,32,9.30
2008,08,28,08,33,5.80
2008,08,28,08,34,5.50
2008,08,28,08,35,1.80
2008,08,28,08,36,0.40
2008,08,28,08,37,0.50
2008,08,28,08,38,1.20
2008,08,28,08,39,4.50
2008,08,28,08,40,2.20
2008,08,28,08,41,4.80
2008,08,28,08,42,3.50
2008,08,28,08,43,4.60
2008,08,28,08,44,3.50
2008,08,28,08,45,9.20
2008,08,28,08,46,2.30
2008,08,28,08,47,1.40
2008,08,28,08,48,1.20
2008,08,28,08,49,3.90
2008,08,28,08,50,5.30
2008,08,28,08,51,7.80
2008,08,28,08,52,6.40
2008,08,28,08,53,3.20
2008,08,28,08,54,8.50
2008,08,28,08,55,7.90
2008,08,28,08,56,9.30
2008,08,28,08,57,8.90
2008,08,28,08,58,6.00
2008,08,28,08,59,2.00
2008,08,28,09,00,0.00
2008,08,28,09,01,1.90
2008,08,28,09,02,2.40
2008,08,28,09,03,2.80
2008,08,28,09,04,5.60
2008,08,28,09,05,4.30
2008,08,28,09,06,5.40
2008,08,28,09,07,3.60
2008,08,28,09,08,4.70
2008,08,28,09,09,3.10
2008,08,28,09,10,6.70
2008,08,28,09,11,3.20
2008,08,28,09,12,1.10
2008,08,28,09,13,3.50
2008,08,28,09,14,4.70
2008,08,28,09,15,3.90
2008,08,28,09,16,6.10
2008,08,28,09,17,4.10
2008,08,28,09,18,4.70
2008,08,28,09,19,0.50
2008,08,28,09,20,6.00
2008,08,28,09,21,3.40
2008,08,28,09,22,3.40
2008,08,28,09,23,6.20
2008,08,28,09,24,4.90
2008,08,28,09,25,3.60
2008,08,28,09,26,3.60
2008,08,28,09,27,2.50
2008,08,28,09,28,3.40
2008,08,28,09,29,5.70
2008,08,28,09,30,8.30
2008,08,28,09,31,5.50
2008,08,28,09,32,4.80
2008,08,28,09,33,3.90
2008,08,28,09,34,4.30
2008,08,28,09,35,3.70
2008,08,28,09,36,7.40
2008,08,28,09,37,2.10
2008,08,28,09,38,4.40
2008,08,28,09,39,4.20
2008,08,28,09,40,5.10
2008,08,28,09,41,3.80
2008,08,28,09,42,2.50
2008,08,28,09,43,8.40
2008,08,28,09,44,7.10
2008,08,28,09,45,3.30
2008,08,28,09,46,0.80
2008,08,28,09,47,7.30
2008,08,28,09,48,6.50
2008,08,28,09,49,1.40
2008,08,28,09,50,6.00
2008,08,28,09,51,6.00
2008,08,28,09,52,5.30
2008,08,28,09,53,6.20
2008,08,28,09,54,6.40
2008,08,28,09,55,8.50
2008,08,28,09,56,5.20
2008,08,28,09,57,4.50
2008,08,28,09,58,4.00
2008,08,28,09,59,4.30
2008,08,28,10,00,9.30
2008,08,28,10,01,7.50
2008,08,28,10,02,4.00
2008,08,28,10,03,7.30
2008,08,28,10,04,5.50
2008,08,28,10,05,4.30
2008,08,28,10,06,8.70
2008,08,28,10,07,6.40
2008,08,28,10,08,7.00
2008,08,28,10,09,8.10
2008,08,28,10,10,5.00
2008,08,28,10,11,5.20
2008,08,28,10,12,4.50
2008,08,28,10,13,9.20
2008,08,28,10,14,6.60
2008,08,28,10,15,7.50
2008,08,28,10,16,7.60
2008,08,28,10,17,2.60
2008,08,28,10,18,1.10
2008,08,28,10,19,3.50
2008,08,28,10,20,3.30
2008,08,28,10,21,4.50
2008,08,28,10,22,3.40
2008,08,28,10,23,11.60
2008,08,28,10,24,9.30
2008,08,28,10,25,6.60
2008,08,28,10,26,7.10
2008,08,28,10,27,9.10
2008,08,28,10,28,13.90
2008,08,28,10,29,8.00
2008,08,28,10,30,7.10
2008,08,28,10,31,6.20
2008,08,28,10,32,1.50
2008,08,28,10,33,5.50
2008,08,28,10,34,9.00
2008,08,28,10,35,6.10
2008,08,28,10,36,4.70
2008,08,28,10,37,7.30
2008,08,28,10,38,8.90
2008,08,28,10,39,4.20
2008,08,28,10,40,7.10
2008,08,28,10,41,4.40
2008,08,28,10,42,6.00
2008,08,28,10,43,3.60
2008,08,28,10,44,2.50
2008,08,28,10,45,4.60
2008,08,28,10,46,9.70
2008,08,28,10,47,7.80
2008,08,28,10,48,9.70
2008,08,28,10,49,7.80
2008,08,28,10,50,13.60
2008,08,28,10,51,7.30
2008,08,28,10,52,12.30
2008,08,28,10,53,7.60
2008,08,28,10,54,8.90
2008,08,28,10,55,3.60
2008,08,28,10,56,5.40
2008,08,28,10,57,8.10
2008,08,28,10,58,3.60
2008,08,28,10,59,6.60
2008,08,28,11,00,7.10
2008,08,28,11,01,7.80
2008,08,28,11,02,2.30
2008,08,28,11,03,4.20
2008,08,28,11,04,6.20
2008,08,28,11,05,9.40
2008,08,28,11,06,8.00
2008,08,28,11,07,7.20
2008,08,28,11,08,6.40
2008,08,28,11,09,12.40
2008,08,28,11,10,6.70
2008,08,28,11,11,5.90
2008,08,28,11,12,6.50
2008,08,28,11,13,9.40
2008,08,28,11,14,8.70
2008,08,28,11,15,9.00
2008,08,28,11,16,10.50
2008,08,28,11,17,6.10
2008,08,28,11,18,6.00
2008,08,28,11,19,4.50
2008,08,28,11,20,5.80
2008,08,28,11,21,4.30
2008,08,28,11,22,6.40
2008,08,28,11,23,9.00
2008,08,28,11,24,8.50
2008,08,28,11,25,5.80
2008,08,28,11,26,5.10
2008,08,28,11,27,9.50
2008,08,28,11,28,11.40
2008,08,28,11,29,12.50
2008,08,28,11,30,5.10
2008,08,28,11,31,8.50
2008,08,28,11,32,10.50
2008,08,28,11,33,7.70
2008,08,28,11,34,10.30
2008,08,28,11,35,5.80
2008,08,28,11,36,11.20
2008,08,28,11,37,5.90
2008,08,28,11,38,5.70
2008,08,28,11,39,8.00
2008,08,28,11,40,9.30
2008,08,28,11,41,7.00
2008,08,28,11,42,9.50
2008,08,28,11,43,9.20
2008,08,28,11,44,1.50
2008,08,28,11,45,7.60
2008,08,28,11,46,13.90
2008,08,28,11,47,7.40
2008,08,28,11,48,8.40
2008,08,28,11,49,6.30
2008,08,28,11,50,6.90
2008,08,28,11,51,8.10
2008,08,28,11,52,8.20
2008,08,28,11,53,7.50
2008,08,28,11,54,9.10
2008,08,28,11,55,10.90
2008,08,28,11,56,2.40
2008,08,28,11,57,9.70
2008,08,28,11,58,1.00
2008,08,28,11,59,5.90
2008,08,28,12,00,10.60
2008,08,28,12,01,8.70
2008,08,28,12,02,6.80
2008,08,28,12,03,13.20
2008,08,28,12,04,6.10
2008,08,28,12,05,10.70
2008,08,28,12,06,5.10
2008,08,28,12,07,13.00
2008,08,28,12,08,14.20
2008,08,28,12,09,10.50
2008,08,28,12,10,7.50
2008,08,28,12,11,6.00
2008,08,28,12,12,11.50
2008,08,28,12,13,9.70
2008,08,28,12,14,1.30
2008,08,28,12,15,4.80
2008,08,28,12,16,4.60
2008,08,28,12,17,2.40
2008,08,28,12,18,6.70
2008,08,28,12,19,9.80
2008,08,28,12,20,9.90
2008,08,28,12,21,7.60
2008,08,28,12,22,5.10
2008,08,28,12,23,7.80
2008,08,28,12,24,16.10
2008,08,28,12,25,10.20
2008,08,28,12,26,8.30
2008,08,28,12,27,4.40
2008,08,28,12,28,7.40
2008,08,28,12,29,9.40
2008,08,28,12,30,3.90
2008,08,28,12,31,15.40
2008,08,28,12,32,11.90
2008,08,28,12,33,9.80
2008,08,28,12,34,8.20
2008,08,28,12,35,3.80
2008,08,28,12,36,7.00
2008,08,28,12,37,12.80
2008,08,28,12,38,9.40
2008,08,28,12,39,1.20
2008,08,28,12,40,11.10
2008,08,28,12,41,8.00
2008,08,28,12,42,14.70
2008,08,28,12,43,15.00
2008,08,28,12,44,17.40
2008,08,28,12,45,12.20
2008,08,28,12,46,9.20
2008,08,28,12,47,7.60
2008,08,28,12,48,9.40
2008,08,28,12,49,12.60
2008,08,28,12,50,9.10
2008,08,28,12,51,13.00
2008,08,28,12,52,8.70
2008,08,28,12,53,11.40
2008,08,28,12,54,9.20
2008,08,28,12,55,7.50
2008,08,28,12,56,12.40
2008,08,28,12,57,3.30
2008,08,28,12,58,2.60
2008,08,28,12,59,2.90
2008,08,28,13,00,15.60
2008,08,28,13,01,4.10
2008,08,28,13,02,3.10
2008,08,28,13,03,9.30
2008,08,28,13,04,5.70
2008,08,28,13,05,11.20
2008,08,28,13,06,5.70
2008,08,28,13,07,8.50
2008,08,28,13,08,4.40
2008,08,28,13,09,3.60
2008,08,28,13,10,7.80
2008,08,28,13,11,10.20
2008,08,28,13,12,13.40
2008,08,28,13,13,13.10
2008,08,28,13,14,10.90
2008,08,28,13,15,4.90
2008,08,28,13,16,7.00
2008,08,28,13,17,6.40
2008,08,28,13,18,5.80
2008,08,28,13,19,6.30
2008,08,28,13,20,4.40
2008,08,28,13,21,7.30
2008,08,28,13,22,6.50
2008,08,28,13,23,13.10
2008,08,28,13,24,13.70
2008,08,28,13,25,17.00
2008,08,28,13,26,7.50
2008,08,28,13,27,7.90
2008,08,28,13,28,4.50
2008,08,28,13,29,9.60
2008,08,28,13,30,6.50
2008,08,28,13,31,5.50
2008,08,28,13,32,6.80
2008,08,28,13,33,9.00
2008,08,28,13,34,6.80
2008,08,28,13,35,7.90
2008,08,28,13,36,5.50
2008,08,28,13,37,10.40
2008,08,28,13,38,11.80
2008,08,28,13,39,10.10
2008,08,28,13,40,10.10
2008,08,28,13,41,7.90
2008,08,28,13,42,10.10
2008,08,28,13,43,15.80
2008,08,28,13,44,8.60
2008,08,28,13,45,6.30
2008,08,28,13,46,5.00
2008,08,28,13,47,5.60
2008,08,28,13,48,8.40
2008,08,28,13,49,11.00
2008,08,28,13,50,9.30
2008,08,28,13,51,10.50
2008,08,28,13,52,12.90
2008,08,28,13,53,8.60
2008,08,28,13,54,3.80
2008,08,28,13,55,13.60
2008,08,28,13,56,10.10
2008,08,28,13,57,10.50
2008,08,28,13,58,7.70
2008,08,28,13,59,4.70
2008,08,28,14,00,2.70
2008,08,28,14,01,7.00
2008,08,28,14,02,4.90
2008,08,28,14,03,9.60
2008,08,28,14,04,4.10
2008,08,28,14,05,15.80
2008,08,28,14,06,10.40
2008,08,28,14,07,11.70
2008,08,28,14,08,14.50
2008,08,28,14,09,8.10
2008,08,28,14,10,2.30
2008,08,28,14,11,12.20
2008,08,28,14,12,7.30
2008,08,28,14,13,7.40
2008,08,28,14,14,10.30
2008,08,28,14,15,7.40
2008,08,28,14,16,8.40
2008,08,28,14,17,8.00
2008,08,28,14,18,12.00
2008,08,28,14,19,8.20
2008,08,28,14,20,6.00
2008,08,28,14,21,5.00
2008,08,28,14,22,13.30
2008,08,28,14,23,10.90
2008,08,28,14,24,7.60
2008,08,28,14,25,6.60
2008,08,28,14,26,8.30
2008,08,28,14,27,7.20
2008,08,28,14,28,12.70
2008,08,28,14,29,13.50
2008,08,28,14,30,6.40
2008,08,28,14,31,5.30
2008,08,28,14,32,4.10
2008,08,28,14,33,7.20
2008,08,28,14,34,8.00
2008,08,28,14,35,4.60
2008,08,28,14,36,9.60
2008,08,28,14,37,11.30
2008,08,28,14,38,6.60
2008,08,28,14,39,10.30
2008,08,28,14,40,14.10
2008,08,28,14,41,13.00
2008,08,28,14,42,7.70
2008,08,28,14,43,5.80
2008,08,28,14,44,9.10
2008,08,28,14,45,10.30
2008,08,28,14,46,9.30
2008,08,28,14,47,10.80
2008,08,28,14,48,7.60
2008,08,28,14,49,3.00
2008,08,28,14,50,10.40
2008,08,28,14,51,13.20
2008,08,28,14,52,17.60
2008,08,28,14,53,8.30
2008,08,28,14,54,9.20
2008,08,28,14,55,8.90
2008,08,28,14,56,4.60
2008,08,28,14,57,2.40
2008,08,28,14,58,3.10
2008,08,28,14,59,9.40
2008,08,28,15,00,7.70
2008,08,28,15,01,3.40
2008,08,28,15,02,8.20
2008,08,28,15,03,12.70
2008,08,28,15,04,10.60
2008,08,28,15,05,8.40
2008,08,28,15,06,1.10
2008,08,28,15,07,8.00
2008,08,28,15,08,7.70
2008,08,28,15,09,4.80
2008,08,28,15,10,8.90
2008,08,28,15,11,12.30
2008,08,28,15,12,7.80
2008,08,28,15,13,6.80
2008,08,28,15,14,9.90
2008,08,28,15,15,9.30
2008,08,28,15,16,11.70
2008,08,28,15,17,9.70
2008,08,28,15,18,12.20
2008,08,28,15,19,8.20
2008,08,28,15,20,3.50
2008,08,28,15,21,6.50
2008,08,28,15,22,7.30
2008,08,28,15,23,8.10
2008,08,28,15,24,12.70
2008,08,28,15,25,9.00
2008,08,28,15,26,8.70
2008,08,28,15,27,6.80
2008,08,28,15,28,6.00
2008,08,28,15,29,8.10
2008,08,28,15,30,12.70
2008,08,28,15,31,7.00
2008,08,28,15,32,10.90
2008,08,28,15,33,8.00
2008,08,28,15,34,4.00
2008,08,28,15,35,8.90
2008,08,28,15,36,8.10
2008,08,28,15,37,8.20
2008,08,28,15,38,10.60
2008,08,28,15,39,4.80
2008,08,28,15,40,10.00
2008,08,28,15,41,7.20
2008,08,28,15,42,10.90
2008,08,28,15,43,16.30
2008,08,28,15,44,12.30
2008,08,28,15,45,11.50
2008,08,28,15,46,8.30
2008,08,28,15,47,10.50
2008,08,28,15,48,2.70
2008,08,28,15,49,8.80
2008,08,28,15,50,10.10
2008,08,28,15,51,4.10
2008,08,28,15,52,3.10
2008,08,28,15,53,11.80
2008,08,28,15,54,7.00
2008,08,28,15,55,11.90
2008,08,28,15,56,12.10
2008,08,28,15,57,14.30
2008,08,28,15,58,14.00
2008,08,28,15,59,18.70
2008,08,28,16,00,14.00
2008,08,28,16,01,16.30
2008,08,28,16,02,10.10
2008,08,28,16,03,12.50
2008,08,28,16,04,4.50
2008,08,28,16,05,7.30
2008,08,28,16,06,8.10
2008,08,28,16,07,3.50
2008,08,28,16,08,12.70
2008,08,28,16,09,15.10
2008,08,28,16,10,11.40
2008,08,28,16,11,7.80
2008,08,28,16,12,9.20
2008,08,28,16,13,3.90
2008,08,28,16,14,9.10
2008,08,28,16,15,17.10
2008,08,28,16,16,13.30
2008,08,28,16,17,12.10
2008,08,28,16,18,11.30
2008,08,28,16,19,7.60
2008,08,28,16,20,4.70
2008,08,28,16,21,2.70
2008,08,28,16,22,4.20
2008,08,28,16,23,14.40
2008,08,28,16,24,6.10
2008,08,28,16,25,8.40
2008,08,28,16,26,6.30
2008,08,28,16,27,11.00
2008,08,28,16,28,12.30
2008,08,28,16,29,15.00
2008,08,28,16,30,10.30
2008,08,28,16,31,10.10
2008,08,28,16,32,12.70
2008,08,28,16,33,11.70
2008,08,28,16,34,5.80
2008,08,28,16,35,14.30
2008,08,28,16,36,12.10
2008,08,28,16,37,11.00
2008,08,28,16,38,11.70
2008,08,28,16,39,11.40
2008,08,28,16,40,11.00
2008,08,28,16,41,7.60
2008,08,28,16,42,6.90
2008,08,28,16,43,6.40
2008,08,28,16,44,2.70
2008,08,28,16,45,6.90
2008,08,28,16,46,13.30
2008,08,28,16,47,4.70
2008,08,28,16,48,4.60
2008,08,28,16,49,8.40
2008,08,28,16,50,7.90
2008,08,28,16,51,10.50
2008,08,28,16,52,6.30
2008,08,28,16,53,7.60
2008,08,28,16,54,8.30
2008,08,28,16,55,4.20
2008,08,28,16,56,9.10
2008,08,28,16,57,9.80
2008,08,28,16,58,9.30
2008,08,28,16,59,4.00
2008,08,28,17,00,6.90
2008,08,28,17,01,6.30
2008,08,28,17,02,10.50
2008,08,28,17,03,9.00
2008,08,28,17,04,9.50
2008,08,28,17,05,6.00
2008,08,28,17,06,9.00
2008,08,28,17,07,7.00
2008,08,28,17,08,12.70
2008,08,28,17,09,7.90
2008,08,28,17,10,7.50
2008,08,28,17,11,3.10
2008,08,28,17,12,5.20
2008,08,28,17,13,5.00
2008,08,28,17,14,5.10
2008,08,28,17,15,3.90
2008,08,28,17,16,6.40
2008,08,28,17,17,7.40
2008,08,28,17,18,4.70
2008,08,28,17,19,4.20
2008,08,28,17,20,7.40
2008,08,28,17,21,6.60
2008,08,28,17,22,6.40
2008,08,28,17,23,5.30
2008,08,28,17,24,6.00
2008,08,28,17,25,7.10
2008,08,28,17,26,6.40
2008,08,28,17,27,7.50
2008,08,28,17,28,6.70
2008,08,28,17,29,3.40
2008,08,28,17,30,4.60
2008,08,28,17,31,6.20
2008,08,28,17,32,11.40
2008,08,28,17,33,7.80
2008,08,28,17,34,7.60
2008,08,28,17,35,5.80
2008,08,28,17,36,1.90
2008,08,28,17,37,8.10
2008,08,28,17,38,8.10
2008,08,28,17,39,5.30
2008,08,28,17,40,5.90
2008,08,28,17,41,2.00
2008,08,28,17,42,3.60
2008,08,28,17,43,7.50
2008,08,28,17,44,5.30
2008,08,28,17,45,12.70
2008,08,28,17,46,6.60
2008,08,28,17,47,7.10
2008,08,28,17,48,10.90
2008,08,28,17,49,4.00
2008,08,28,17,50,5.80
2008,08,28,17,51,8.00
2008,08,28,17,52,9.60
2008,08,28,17,53,7.80
2008,08,28,17,54,7.50
2008,08,28,17,55,6.30
2008,08,28,17,56,8.20
2008,08,28,17,57,6.70
2008,08,28,17,58,10.60
2008,08,28,17,59,7.30